[[{"header":{"parameterUnit":"m.s-1","parameterCategory":1,"la1":30.2991,"la2":30.254,"lo1":-89.0895,"lo2":-89.0444,"dy":0.0017,"dx":0.0017,"nx":28,"ny":28,"refTime":"2024-08-24T03:00:00:Z","depth":0,"parameterNumber":2,"parameterNumberName":"U-component_of_WINDS"},"data":[0,0,0,0,0,0,0,0,0,0,0,0,0,0,0,0,0,0,0,0,0,0,0,0,0,0,0,0,0,0,0,0,0,0,0,0,0,0,0,0,0,0,0,0,0,0,0,0,0,0,0,0,0,0,0,0,0,0,-6.0845,-6.0845,0,-6.084,-6.084,-6.084,-6.0699,-6.0695,-6.0692,-6.0688,-6.0682,-6.0685,-6.0689,0,0,0,0,0,0,0,0,0,0,0,0,0,-6.0734,-6.0737,-6.0845,-6.0845,-6.0845,-6.084,-6.084,-6.084,-6.07,-6.0695,-6.0691,-6.0687,-6.0681,-6.0685,-6.0689,0,0,0,0,0,0,0,0,0,0,0,0,0,-6.0761,-6.0738,-6.0845,-6.0774,-6.0768,-6.084,-6.084,-6.084,-6.0701,-6.0695,-6.069,-6.0685,-6.068,-6.0685,-6.0689,-6.0828,0,0,-6.0704,-6.0706,0,0,0,0,0,0,0,0,-6.076,-6.0765,-6.0785,-6.0779,-6.0772,-6.0765,-6.0798,-6.0836,-6.0702,-6.0726,-6.0688,-6.0682,-6.0714,-6.0716,-6.0727,-6.0828,-6.0827,-6.0704,-6.0707,-6.0709,-6.0711,0,0,0,0,0,0,0,-6.0758,-6.0765,-6.0843,-6.0785,-6.0778,-6.0743,-6.0741,-6.0805,-6.0751,-6.0724,-6.0713,-6.0715,-6.0709,-6.0722,-6.0725,-6.0827,-6.0704,-6.0709,-6.0712,-6.0714,-6.1043,-6.1049,0,0,0,0,0,0,-6.0766,-6.0764,-6.0843,-6.0843,-6.0753,-6.075,-6.0747,-6.0773,-6.075,-6.0741,-6.072,-6.0708,-6.0717,-6.072,-6.0725,-6.0885,-6.0709,-6.0714,-6.0717,-6.1037,-6.1045,-6.1051,0,0,0,0,0,0,-6.0764,-6.0774,-6.0843,-6.0801,-6.0807,-6.0757,-6.0787,-6.0775,-6.0788,-6.0746,-6.0736,-6.0742,-6.0713,-6.0718,-6.0804,-6.0883,-6.0716,-6.0721,-6.103,-6.104,-6.1048,-6.1207,0,0,0,0,0,0,-6.0762,-6.0775,-6.0826,-6.0803,-6.081,-6.0922,-6.0792,-6.0779,-6.0797,-6.0782,-6.0765,-6.0757,-6.0709,-6.0797,-6.0808,-6.0886,-6.0724,-6.1023,-6.1035,-6.1045,-6.1194,-6.122,-6.1242,0,0,0,0,0,-6.0758,-6.0871,-6.0829,-6.084,-6.0873,-6.0927,-6.0931,-6.0873,-6.0804,-6.0855,-6.0829,-6.0758,-6.0874,-6.0807,-6.0819,-6.0899,-6.1018,-6.1031,-6.1044,-6.1184,-6.1215,-6.1242,0,0,0,0,0,0,-6.0903,-6.0866,-6.082,-6.0928,-6.0932,-6.0903,-6.0966,-6.0908,-6.0931,-6.0916,-6.0844,-6.0841,-6.0938,-6.0928,-6.0855,-6.1033,-6.0933,-6.0949,-6.1035,-6.1065,-6.1088,-6.1087,-6.0728,0,0,0,0,0,-6.0948,-6.0995,-6.096,-6.1059,-6.1064,-6.1016,-6.1037,-6.0992,-6.0993,-6.0993,-6.0973,-6.0977,-6.1014,-6.1039,-6.1071,-6.1194,-6.1188,-6.1255,-6.1279,-6.1299,-6.1313,-6.1377,-6.1406,-6.1094,-6.1094,-6.1094,0,0,-6.104,-6.1026,-6.1059,-6.1088,-6.1085,-6.1136,-6.1017,-6.1075,-6.1111,-6.1002,-6.1081,-6.1068,-6.1067,-6.1172,-6.1217,-6.1166,-6.1399,-6.1316,-6.1332,-6.1335,-6.1394,-6.1423,-6.145,-6.1103,-6.1102,-6.11,0,0,-6.1232,-6.1228,-6.1309,-6.131,-6.1309,-6.1277,-6.1297,-6.1278,-6.1265,-6.1344,-6.1263,-6.1307,-6.1372,-6.1375,-6.1385,-6.1585,-6.1519,-6.1598,-6.1721,-6.1784,-6.1809,-6.183,-6.19,-6.1926,-6.1612,-6.1612,-6.1613,0,-6.1346,-6.1418,-6.1358,-6.1422,-6.1437,-6.1343,-6.1426,-6.143,-6.1439,-6.1452,-6.1395,-6.1477,-6.1469,-6.1574,-6.1623,-6.1635,-6.1655,-6.1596,-6.181,-6.1831,-6.185,-6.1916,-6.1943,-6.1622,-6.1621,-6.162,-6.1619,0,-6.1558,-6.1611,-6.1677,-6.1689,-6.1713,-6.1786,-6.1737,-6.1768,-6.1724,-6.1698,-6.1781,-6.177,-6.1798,-6.1821,-6.1777,-6.192,-6.1888,-6.1823,-6.172,-6.189,-6.1951,-6.1975,-6.1635,-6.1632,-6.1629,-6.1627,0,0,-6.1836,-6.1818,-6.1843,-6.1848,-6.1842,-6.1881,-6.1952,-6.198,-6.2008,-6.202,-6.2075,-6.2136,-6.2075,-6.2087,-6.2044,-6.2101,-6.2259,-6.2028,-6.2027,-6.2069,-6.2415,-6.2461,-6.2492,-6.2218,-6.2223,-6.2226,-6.2414,0,-6.202,-6.2138,-6.2088,-6.221,-6.2257,-6.2172,-6.2233,-6.2237,-6.2216,-6.2254,-6.2231,-6.2274,-6.2192,-6.2199,-6.2252,-6.2228,-6.2327,-6.2215,-6.2268,-6.2271,-6.2267,-6.2523,-6.2572,-6.2749,-6.2437,-6.2441,-6.2444,0,-6.2249,-6.2271,-6.2399,-6.2387,-6.2405,-6.246,-6.2484,-6.2522,-6.2525,-6.2506,-6.2522,-6.2468,-6.2536,-6.2439,-6.2532,-6.2457,-6.2477,-6.247,-6.2475,-6.2474,-6.2365,-6.2527,-6.2805,-6.283,-6.2481,-6.2478,-6.2476,0,-6.2436,-6.2498,-6.2583,-6.259,-6.2579,-6.262,-6.2617,-6.2615,-6.2637,-6.2659,-6.2671,-6.2701,-6.2717,-6.2741,-6.2696,-6.263,-6.2796,-6.2694,-6.2781,-6.2783,-6.2816,-6.2813,-6.3098,-6.2836,-6.2835,-6.2835,-6.2834,0,-6.2644,-6.2725,-6.2666,-6.2718,-6.2807,-6.2751,-6.284,-6.2828,-6.2828,-6.2876,-6.2806,-6.2852,-6.2792,-6.2834,-6.28,-6.2882,-6.289,-6.2876,-6.2865,-6.288,-6.2882,-6.2889,-6.2874,-6.2842,-6.284,-6.2839,-6.2838,0,-6.2865,-6.2829,-6.2915,-6.2899,-6.2898,-6.2963,-6.2949,-6.2997,-6.2974,-6.3036,-6.3047,-6.3011,-6.3056,-6.3016,-6.3059,-6.3036,-6.3145,-6.3118,-6.3144,-6.3135,-6.3223,-6.3214,-6.3518,-6.3555,-6.3273,-6.3276,-6.3278,0,-6.2997,-6.3058,-6.305,-6.3077,-6.3079,-6.3125,-6.3147,-6.3096,-6.3122,-6.3134,-6.318,-6.322,-6.3248,-6.3325,-6.3302,-6.3336,-6.3307,-6.3412,-6.3311,-6.3325,-6.3305,-6.3301,-6.3306,-6.3431,-6.3434,-6.3437,-6.3439,0,-6.3237,-6.3217,-6.3252,-6.3283,-6.3312,-6.3333,-6.3348,-6.3375,-6.3323,-6.3357,-6.3403,-6.3426,-6.3472,-6.3512,-6.3539,-6.3536,-6.3479,-6.3472,-6.3493,-6.3506,-6.3517,-6.351,-6.3195,-6.3464,-6.3461,-6.3459,-6.3458,-6.3457,-6.3415,-6.3465,-6.3468,-6.351,-6.3517,-6.3534,-6.3578,-6.3563,-6.36,-6.3633,-6.3603,-6.3659,-6.3664,-6.3694,-6.3699,-6.3742,-6.3698,-6.373,-6.3737,-6.3744,-6.3756,-6.3515,-6.3748,-6.3747,-6.3746,-6.3746,-6.3745,0,-6.3647,-6.3646,-6.3686,-6.3711,-6.3745,-6.3693,-6.3708,-6.3739,-6.379,-6.38,-6.3831,-6.3885,-6.3925,-6.3908,-6.3943,-6.3982,-6.3956,-6.3992,-6.3986,-6.3987,-6.3795,-6.3771,-6.4012,-6.4012,-6.4012,-6.4012,-6.4012,-6.4012,-6.3772,-6.3853,-6.3836,-6.3921,-6.392,-6.3974,-6.3988,-6.4004,-6.4012,-6.4076,-6.4109,-6.4099,-6.4099,-6.4134,-6.4169,-6.4163,-6.4178,-6.4223,-6.4207,-6.4027,-6.4,-6.3975,-6.3952,-6.4227,-6.4228,-6.4395,-6.4396,-6.4398]},{"header":{"parameterUnit":"m.s-1","parameterCategory":1,"la1":30.2991,"la2":30.254,"lo1":-89.0895,"lo2":-89.0444,"dy":0.0017,"dx":0.0017,"nx":28,"ny":28,"refTime":"2024-08-24T03:00:00:Z","depth":0,"parameterNumber":3,"parameterNumberName":"V-component_of_WINDS"},"data":[0,0,0,0,0,0,0,0,0,0,0,0,0,0,0,0,0,0,0,0,0,0,0,0,0,0,0,0,0,0,0,0,0,0,0,0,0,0,0,0,0,0,0,0,0,0,0,0,0,0,0,0,0,0,0,0,0,0,1.4707,1.4706,0,1.4651,1.4651,1.465,1.4627,1.4627,1.4628,1.4628,1.4568,1.4567,1.4565,0,0,0,0,0,0,0,0,0,0,0,0,0,1.479,1.4789,1.4707,1.4706,1.4705,1.4652,1.4651,1.465,1.4627,1.4628,1.4628,1.4628,1.4569,1.4567,1.4565,0,0,0,0,0,0,0,0,0,0,0,0,0,1.4747,1.4789,1.4707,1.4688,1.4685,1.4652,1.4651,1.465,1.4627,1.4628,1.4628,1.4628,1.457,1.4567,1.4565,1.4545,0,0,1.4557,1.4556,0,0,0,0,0,0,0,0,1.4749,1.4743,1.4691,1.4689,1.4686,1.4647,1.4658,1.4615,1.4627,1.4649,1.4628,1.4628,1.4594,1.459,1.4579,1.4542,1.454,1.4557,1.4555,1.4554,1.4553,0,0,0,0,0,0,0,1.4752,1.4746,1.4685,1.469,1.4687,1.4681,1.4675,1.465,1.4621,1.4647,1.4646,1.464,1.4593,1.4581,1.4577,1.4539,1.4557,1.4554,1.4553,1.4552,1.4484,1.4483,0,0,0,0,0,0,1.4759,1.4748,1.4687,1.4683,1.4719,1.4679,1.4673,1.4659,1.4621,1.4616,1.4639,1.4639,1.4585,1.458,1.4575,1.455,1.4554,1.4552,1.455,1.4484,1.4484,1.4483,0,0,0,0,0,0,1.4761,1.4753,1.4689,1.4715,1.4707,1.4678,1.4663,1.4658,1.4646,1.4615,1.461,1.4633,1.4585,1.4579,1.4553,1.4547,1.4551,1.4548,1.4484,1.4484,1.4483,1.4499,0,0,0,0,0,0,1.4763,1.4754,1.4747,1.4715,1.4705,1.4668,1.4662,1.4657,1.4642,1.4641,1.4608,1.4603,1.4585,1.4557,1.455,1.4544,1.4546,1.4485,1.4484,1.4484,1.4499,1.4499,1.4499,0,0,0,0,0,1.4766,1.4753,1.4747,1.4739,1.4696,1.4668,1.4662,1.4643,1.4642,1.4634,1.4614,1.4604,1.4549,1.4554,1.4547,1.4539,1.4485,1.4484,1.4484,1.4498,1.4499,1.4499,0,0,0,0,0,0,1.4784,1.4748,1.4741,1.4717,1.4696,1.4664,1.4654,1.4644,1.4622,1.4621,1.4597,1.459,1.4566,1.455,1.4557,1.4518,1.4516,1.4514,1.453,1.453,1.453,1.4534,1.4544,0,0,0,0,0,1.4785,1.4766,1.4736,1.4718,1.4708,1.4683,1.467,1.4657,1.4634,1.4624,1.4602,1.4579,1.4557,1.4543,1.452,1.4496,1.4489,1.4487,1.4488,1.4488,1.4486,1.4472,1.4471,1.4481,1.4481,1.4481,0,0,1.4787,1.4766,1.4755,1.4721,1.4703,1.4683,1.4675,1.4655,1.464,1.4621,1.4595,1.4579,1.4551,1.4527,1.4515,1.4512,1.4482,1.4487,1.4488,1.4486,1.4472,1.4471,1.447,1.4481,1.4481,1.4481,0,0,1.4781,1.4763,1.4746,1.4728,1.4701,1.4685,1.4681,1.4651,1.4639,1.4614,1.4599,1.458,1.4542,1.4524,1.4509,1.4496,1.4485,1.449,1.4491,1.4477,1.4477,1.4476,1.4471,1.447,1.4488,1.4488,1.4488,0,1.4787,1.4758,1.4738,1.4719,1.4704,1.4687,1.4669,1.4653,1.462,1.461,1.4608,1.456,1.454,1.4511,1.4508,1.4497,1.4491,1.4493,1.4478,1.4477,1.4476,1.4471,1.447,1.4489,1.4489,1.4489,1.4488,0,1.4766,1.4746,1.4735,1.4705,1.4689,1.467,1.4648,1.4634,1.4622,1.4606,1.458,1.4556,1.4528,1.4521,1.4509,1.4489,1.4489,1.4483,1.448,1.4476,1.4471,1.4469,1.449,1.4489,1.4489,1.4489,0,0,1.4769,1.4729,1.4725,1.4711,1.468,1.4664,1.4644,1.4618,1.4607,1.4585,1.4567,1.4536,1.453,1.4514,1.45,1.4488,1.448,1.4484,1.4483,1.4484,1.4456,1.4461,1.4459,1.4472,1.4472,1.4472,1.4459,0,1.4759,1.4724,1.4706,1.4679,1.466,1.4643,1.4626,1.4605,1.4589,1.457,1.4552,1.4531,1.4525,1.4515,1.4503,1.4483,1.4474,1.4484,1.4455,1.4455,1.4463,1.4456,1.4461,1.445,1.4457,1.4456,1.4456,0,1.4742,1.4721,1.4692,1.4663,1.4655,1.464,1.4615,1.4597,1.4573,1.4562,1.4544,1.453,1.4508,1.4507,1.4477,1.4484,1.4471,1.446,1.4459,1.4455,1.4455,1.4452,1.4445,1.4444,1.4453,1.4453,1.4453,0,1.4747,1.4711,1.4689,1.4678,1.4644,1.4634,1.4619,1.4595,1.4581,1.4558,1.4549,1.4524,1.451,1.4491,1.4471,1.4472,1.4442,1.4439,1.4432,1.4433,1.4426,1.4427,1.4417,1.4418,1.4419,1.4419,1.4419,0,1.4737,1.472,1.4691,1.4677,1.4658,1.4637,1.4618,1.4602,1.4581,1.4563,1.4547,1.4531,1.4505,1.4486,1.447,1.4447,1.4441,1.4431,1.4427,1.4432,1.4433,1.4423,1.4423,1.4418,1.4418,1.4418,1.4418,0,1.4739,1.4719,1.4694,1.4664,1.4657,1.4643,1.4618,1.4603,1.4587,1.4565,1.4559,1.4533,1.4509,1.4487,1.4455,1.4444,1.4421,1.4416,1.443,1.4427,1.4421,1.4422,1.4404,1.4401,1.4405,1.4405,1.4405,0,1.4734,1.472,1.469,1.4677,1.4663,1.4643,1.4629,1.4608,1.4593,1.4565,1.4554,1.4529,1.4508,1.4471,1.4449,1.4424,1.4418,1.4414,1.4414,1.442,1.4418,1.4419,1.4417,1.4414,1.4414,1.4414,1.4414,0,1.4727,1.4717,1.4698,1.4674,1.4658,1.4638,1.4618,1.4608,1.4584,1.4568,1.4544,1.4528,1.4496,1.4471,1.4444,1.4428,1.4417,1.4414,1.4411,1.4416,1.4425,1.442,1.443,1.4414,1.4414,1.4414,1.4414,1.4414,1.4724,1.4712,1.4688,1.4667,1.465,1.4631,1.4617,1.4599,1.4579,1.4552,1.454,1.4516,1.4492,1.4454,1.4439,1.4419,1.4416,1.4412,1.4411,1.441,1.4411,1.4428,1.4414,1.4414,1.4414,1.4414,1.4414,0,1.4716,1.4701,1.4681,1.4654,1.4637,1.4628,1.4606,1.4592,1.4571,1.455,1.453,1.4502,1.4478,1.4454,1.4429,1.4418,1.4412,1.4412,1.4412,1.4408,1.4414,1.442,1.4417,1.4417,1.4417,1.4417,1.4417,1.4417,1.471,1.4688,1.4677,1.4646,1.463,1.4607,1.4594,1.4577,1.456,1.453,1.4511,1.4496,1.4473,1.4446,1.4424,1.4417,1.4409,1.441,1.4402,1.4408,1.4408,1.4408,1.4413,1.4408,1.4408,1.4398,1.4398,1.4398]}]]